Weather History for Detroit, MI

Change the Weather History Date:

Friday, September 6, 2013

  Actual Average Record
Temperature  
Mean Temperature 60 °F -  
Max Temperature 73 °F 77 °F 93 °F (1978)
Min Temperature 48 °F 60 °F 44 °F (1962)
Degree Days  
Heating Degree Days 4    
Growing Degree Days 10 (Base 50)    
Moisture  
Dew Point 42 °F    
Average Humidity 54    
Maximum Humidity 86    
Minimum Humidity 21    
Precipitation  
Precipitation 0.00 in - - ()
Sea Level Pressure  
Sea Level Pressure 30.22 in    
Wind  
Wind Speed 2 mph (South)    
Max Wind Speed 9 mph    
Max Gust Speed -    
Visibility 10 miles    
Events      
Averages and records for this station are not official NWS values.
T = Trace of Precipitation, MM = Missing Value Source: NWS Daily Summary

Daily Weather History Graph

Daily Weather History Graph

Search for Another Location

Airport:

Trip Planner

Search our weather history database for the weather conditions in past years. The results will help you decide how hot, cold, wet, or windy it might be!

Date:

Astronomy

Sep. 06, 2013 Rise Set
Actual Time 7:02 AM EDT 7:57 PM EDT
Civil Twilight 6:34 AM EDT 8:25 PM EDT
Nautical Twilight 6:00 AM EDT 8:59 PM EDT
Astronomical Twilight 5:24 AM EDT 9:34 PM EDT
Moon 8:16 AM EDT (9/6) 8:17 PM EDT (9/6)
Length of Visible Light 13h 51m
Length of Day
12h 54m
New Moon, 1% of the Moon is Illuminated
Sep 6
New Moon
Sep 12
First Quarter
Sep 19
Full
Sep 26
Last Quarter
Oct 4
New

Hourly Weather History & Observations

Time (EDT) Temp. Dew Point Humidity Pressure Visibility Wind Dir Wind Speed Gust Speed Precip Events Conditions
12:53 AM 55.0 °F 46.0 °F 72% 30.27 in 10.0 mi Calm Calm - N/A   Clear
1:53 AM 54.0 °F 46.0 °F 75% 30.27 in 10.0 mi Calm Calm - N/A   Clear
2:53 AM 52.0 °F 46.0 °F 80% 30.27 in 10.0 mi Calm Calm - N/A   Clear
3:53 AM 52.0 °F 45.0 °F 77% 30.28 in 10.0 mi Calm Calm - N/A   Clear
4:53 AM 50.0 °F 45.0 °F 83% 30.28 in 10.0 mi Calm Calm - N/A   Clear
5:53 AM 50.0 °F 45.0 °F 83% 30.28 in 10.0 mi Calm Calm - N/A   Clear
6:53 AM 48.9 °F 45.0 °F 86% 30.30 in 10.0 mi Calm Calm - N/A   Clear
7:53 AM 51.1 °F 46.0 °F 83% 30.30 in 10.0 mi Calm Calm - N/A   Clear
8:53 AM 57.0 °F 48.0 °F 72% 30.30 in 10.0 mi Calm Calm - N/A   Clear
9:53 AM 62.1 °F 46.0 °F 56% 30.28 in 10.0 mi Calm Calm - N/A   Clear
10:53 AM 64.9 °F 37.0 °F 36% 30.27 in 10.0 mi Calm Calm - N/A   Clear
11:53 AM 68.0 °F 32.0 °F 26% 30.27 in 10.0 mi Variable 4.6 mph - N/A   Clear
12:53 PM 70.0 °F 30.0 °F 23% 30.25 in 10.0 mi SSW 5.8 mph - N/A   Clear
1:53 PM 71.1 °F 28.9 °F 21% 30.22 in 10.0 mi SSW 4.6 mph - N/A   Clear
2:53 PM 72.0 °F 37.0 °F 28% 30.20 in 10.0 mi Variable 4.6 mph - N/A   Clear
3:53 PM 73.0 °F 43.0 °F 34% 30.17 in 10.0 mi South 5.8 mph - N/A   Clear
4:53 PM 73.9 °F 35.1 °F 24% 30.17 in 10.0 mi SW 5.8 mph - N/A   Clear
5:53 PM 73.0 °F 45.0 °F 37% 30.17 in 10.0 mi South 6.9 mph - N/A   Clear
6:53 PM 71.1 °F 46.0 °F 41% 30.14 in 10.0 mi South 9.2 mph - N/A   Clear
7:53 PM 68.0 °F 34.0 °F 28% 30.14 in 10.0 mi South 4.6 mph - N/A   Clear
8:53 PM 64.9 °F 42.1 °F 43% 30.12 in 10.0 mi South 5.8 mph - N/A   Clear
9:53 PM 64.0 °F 48.0 °F 56% 30.12 in 10.0 mi South 4.6 mph - N/A   Clear
10:53 PM 63.0 °F 50.0 °F 63% 30.10 in 10.0 mi South 5.8 mph - N/A   Clear
11:53 PM 63.0 °F 51.1 °F 65% 30.09 in 10.0 mi South 3.5 mph - N/A   Clear